Time,TemperatureF,DewpointF,PressureIn,WindDirection,WindDirectionDegrees,WindSpeedMPH,WindSpeedGustMPH,Humidity,HourlyPrecipIn,Conditions,Clouds,dailyrainin,SolarRadiationWatts/m^2,SoftwareType,DateUTC
2013-05-31 00:01:00,43.0,27.0,-100.00,NNE,29,3.0,4.0,51,-99.99,,,-99.99,0.000000,,2013-05-31 06:01:00,
2013-05-31 00:11:00,43.0,26.0,-100.00,NNW,341,1.0,4.0,51,-99.99,,,-99.99,0.000000,,2013-05-31 06:11:00,
2013-05-31 00:21:00,42.0,26.0,-100.00,NW,318,3.0,4.0,51,-99.99,,,-99.99,0.000000,,2013-05-31 06:21:00,
2013-05-31 00:31:00,42.0,26.0,-100.00,WNW,303,4.0,5.0,51,-99.99,,,-99.99,0.000000,,2013-05-31 06:31:00,
2013-05-31 00:41:00,42.0,26.0,-100.00,NW,320,4.0,5.0,52,-99.99,,,-99.99,0.000000,,2013-05-31 06:41:00,
2013-05-31 00:51:00,42.0,26.0,-100.00,West,266,0.0,5.0,53,-99.99,,,-99.99,0.000000,,2013-05-31 06:51:00,
2013-05-31 01:01:00,44.0,25.0,-100.00,WNW,299,4.0,6.0,47,-99.99,,,-99.99,0.000000,,2013-05-31 07:01:00,
2013-05-31 01:11:00,43.0,26.0,-100.00,NW,311,4.0,6.0,49,-99.99,,,-99.99,0.000000,,2013-05-31 07:11:00,
2013-05-31 01:21:00,42.0,25.0,-100.00,WNW,296,4.0,5.0,51,-99.99,,,-99.99,0.000000,,2013-05-31 07:21:00,
2013-05-31 01:32:00,42.0,26.0,-100.00,WNW,286,3.0,5.0,52,-99.99,,,-99.99,0.000000,,2013-05-31 07:32:00,
2013-05-31 01:41:00,43.0,26.0,-100.00,WNW,299,4.0,6.0,50,-99.99,,,-99.99,0.000000,,2013-05-31 07:41:00,
2013-05-31 01:52:00,44.0,26.0,-100.00,WNW,293,3.0,5.0,49,-99.99,,,-99.99,0.000000,,2013-05-31 07:52:00,
2013-05-31 02:01:00,43.0,26.0,-100.00,WSW,244,4.0,5.0,50,-99.99,,,-99.99,0.000000,,2013-05-31 08:01:00,
2013-05-31 02:11:00,42.0,26.0,-100.00,NNW,329,6.0,6.0,53,-99.99,,,-99.99,0.000000,,2013-05-31 08:11:00,
2013-05-31 02:21:00,43.0,26.0,-100.00,WNW,303,4.0,6.0,50,-99.99,,,-99.99,0.000000,,2013-05-31 08:21:00,
2013-05-31 02:31:00,41.0,26.0,-100.00,West,270,2.0,4.0,56,-99.99,,,-99.99,0.000000,,2013-05-31 08:31:00,
2013-05-31 02:41:00,43.0,26.0,-100.00,WNW,293,6.0,7.0,51,-99.99,,,-99.99,0.000000,,2013-05-31 08:41:00,
2013-05-31 02:51:00,42.0,27.0,-100.00,West,276,4.0,6.0,54,-99.99,,,-99.99,0.000000,,2013-05-31 08:51:00,
2013-05-31 03:01:00,42.0,27.0,-100.00,WNW,283,5.0,6.0,54,-99.99,,,-99.99,0.000000,,2013-05-31 09:01:00,
2013-05-31 03:11:00,41.0,26.0,-100.00,WNW,287,6.0,7.0,55,-99.99,,,-99.99,0.000000,,2013-05-31 09:11:00,
2013-05-31 03:21:00,42.0,27.0,-100.00,NW,310,5.0,7.0,55,-99.99,,,-99.99,0.000000,,2013-05-31 09:21:00,
2013-05-31 03:32:00,42.0,27.0,-100.00,WNW,303,6.0,8.0,54,-99.99,,,-99.99,0.000000,,2013-05-31 09:32:00,
2013-05-31 03:43:00,42.0,27.0,-100.00,WNW,297,5.0,7.0,55,-99.99,,,-99.99,0.000000,,2013-05-31 09:43:00,
2013-05-31 03:53:00,41.0,27.0,-100.00,West,271,5.0,6.0,57,-99.99,,,-99.99,0.000000,,2013-05-31 09:53:00,
2013-05-31 04:02:00,42.0,27.0,-100.00,WNW,289,5.0,7.0,56,-99.99,,,-99.99,0.000000,,2013-05-31 10:02:00,
2013-05-31 04:12:00,41.0,27.0,-100.00,West,276,5.0,10.0,56,-99.99,,,-99.99,0.000000,,2013-05-31 10:12:00,
2013-05-31 04:22:00,40.0,27.0,-100.00,West,268,5.0,6.0,59,-99.99,,,-99.99,0.000000,,2013-05-31 10:22:00,
2013-05-31 04:32:00,41.0,27.0,-100.00,West,280,6.0,8.0,55,-99.99,,,-99.99,0.000000,,2013-05-31 10:32:00,
2013-05-31 04:42:00,40.0,26.0,-100.00,West,275,5.0,8.0,57,-99.99,,,-99.99,0.000000,,2013-05-31 10:42:00,
2013-05-31 04:52:00,40.0,26.0,-100.00,West,269,5.0,7.0,57,-99.99,,,-99.99,0.000000,,2013-05-31 10:52:00,
2013-05-31 05:01:00,40.0,25.0,-100.00,WNW,291,6.0,7.0,55,-99.99,,,-99.99,0.000000,,2013-05-31 11:01:00,
2013-05-31 05:11:00,41.0,25.0,-100.00,West,259,7.0,9.0,53,-99.99,,,-99.99,0.000000,,2013-05-31 11:11:00,
2013-05-31 05:22:00,40.0,25.0,-100.00,West,275,7.0,8.0,53,-99.99,,,-99.99,0.000000,,2013-05-31 11:22:00,
2013-05-31 05:32:00,40.0,25.0,-100.00,West,259,7.0,9.0,53,-99.99,,,-99.99,0.000000,,2013-05-31 11:32:00,
2013-05-31 05:41:00,40.0,24.0,-100.00,WSW,256,9.0,11.0,53,-99.99,,,-99.99,0.000000,,2013-05-31 11:41:00,
2013-05-31 05:52:00,41.0,24.0,-100.00,West,268,10.0,13.0,49,-99.99,,,-99.99,0.000000,,2013-05-31 11:52:00,
2013-05-31 06:01:00,41.0,23.0,-100.00,West,262,10.0,12.0,49,-99.99,,,-99.99,0.110000,,2013-05-31 12:01:00,
2013-05-31 06:11:00,40.0,23.0,-100.00,West,267,8.0,14.0,50,-99.99,,,-99.99,0.770000,,2013-05-31 12:11:00,
2013-05-31 06:21:00,40.0,23.0,-100.00,West,275,8.0,13.0,50,-99.99,,,-99.99,3.200000,,2013-05-31 12:21:00,
2013-05-31 06:31:00,40.0,24.0,-100.00,West,267,8.0,12.0,51,-99.99,,,-99.99,6.630000,,2013-05-31 12:31:00,
2013-05-31 06:41:00,40.0,23.0,-100.00,West,261,10.0,13.0,50,-99.99,,,-99.99,10.390000,,2013-05-31 12:41:00,
2013-05-31 06:51:00,38.0,25.0,-100.00,SW,235,8.0,12.0,58,-99.99,,,-99.99,13.870000,,2013-05-31 12:51:00,
2013-05-31 07:01:00,38.0,25.0,-100.00,WSW,244,9.0,10.0,58,-99.99,,,-99.99,63.369999,,2013-05-31 13:01:00,
2013-05-31 07:11:00,39.0,25.0,-100.00,WSW,250,8.0,12.0,56,-99.99,,,-99.99,112.400002,,2013-05-31 13:11:00,
2013-05-31 07:21:00,40.0,24.0,-100.00,WSW,255,10.0,13.0,51,-99.99,,,-99.99,146.199997,,2013-05-31 13:21:00,
2013-05-31 07:32:00,39.0,25.0,-100.00,WSW,249,8.0,11.0,55,-99.99,,,-99.99,177.500000,,2013-05-31 13:32:00,
2013-05-31 07:42:00,40.0,24.0,-100.00,WSW,247,8.0,11.0,52,-99.99,,,-99.99,210.500000,,2013-05-31 13:42:00,
2013-05-31 07:52:00,41.0,24.0,-100.00,SW,234,12.0,13.0,51,-99.99,,,-99.99,246.100006,,2013-05-31 13:52:00,
2013-05-31 08:02:00,41.0,24.0,-100.00,SW,229,11.0,14.0,48,-99.99,,,-99.99,281.799988,,2013-05-31 14:02:00,
2013-05-31 08:11:00,42.0,21.0,-100.00,SW,229,14.0,18.0,43,-99.99,,,-99.99,319.000000,,2013-05-31 14:11:00,
2013-05-31 08:21:00,43.0,21.0,-100.00,SW,225,17.0,20.0,41,-99.99,,,-99.99,356.299988,,2013-05-31 14:21:00,
2013-05-31 08:31:00,44.0,21.0,-100.00,WSW,240,16.0,20.0,39,-99.99,,,-99.99,393.700012,,2013-05-31 14:31:00,
2013-05-31 08:41:00,44.0,21.0,-100.00,WSW,247,15.0,24.0,39,-99.99,,,-99.99,431.000000,,2013-05-31 14:41:00,
2013-05-31 08:52:00,44.0,19.0,-100.00,WSW,249,13.0,23.0,36,-99.99,,,-99.99,468.899994,,2013-05-31 14:52:00,
2013-05-31 09:01:00,44.0,21.0,-100.00,WSW,247,16.0,21.0,38,-99.99,,,-99.99,507.600006,,2013-05-31 15:01:00,
2013-05-31 09:11:00,45.0,20.0,-100.00,WSW,255,17.0,23.0,36,-99.99,,,-99.99,545.299988,,2013-05-31 15:11:00,
2013-05-31 09:21:00,45.0,18.0,-100.00,WSW,253,18.0,24.0,33,-99.99,,,-99.99,582.400024,,2013-05-31 15:21:00,
2013-05-31 09:33:00,45.0,19.0,-100.00,WSW,250,16.0,22.0,34,-99.99,,,-99.99,618.599976,,2013-05-31 15:33:00,
2013-05-31 09:42:00,45.0,19.0,-100.00,WSW,250,16.0,22.0,34,-99.99,,,-99.99,618.599976,,2013-05-31 15:42:00,
2013-05-31 09:53:00,45.0,19.0,-100.00,WSW,247,22.0,29.0,33,-99.99,,,-99.99,687.599976,,2013-05-31 15:53:00,
2013-05-31 10:03:00,45.0,17.0,-100.00,WSW,253,17.0,26.0,32,-99.99,,,-99.99,720.299988,,2013-05-31 16:03:00,
2013-05-31 10:12:00,46.0,17.0,-100.00,WSW,249,16.0,27.0,31,-99.99,,,-99.99,751.700012,,2013-05-31 16:12:00,
2013-05-31 10:22:00,46.0,18.0,-100.00,WSW,253,18.0,23.0,32,-99.99,,,-99.99,782.500000,,2013-05-31 16:22:00,
2013-05-31 10:33:00,47.0,21.0,-100.00,WSW,247,17.0,27.0,35,-99.99,,,-99.99,810.000000,,2013-05-31 16:33:00,
2013-05-31 10:41:00,46.0,21.0,-100.00,WSW,243,17.0,24.0,36,-99.99,,,-99.99,836.000000,,2013-05-31 16:41:00,
2013-05-31 10:52:00,47.0,24.0,-100.00,SW,234,15.0,23.0,39,-99.99,,,-99.99,862.000000,,2013-05-31 16:52:00,
2013-05-31 11:02:00,47.0,24.0,-100.00,SW,234,15.0,23.0,39,-99.99,,,-99.99,862.000000,,2013-05-31 17:02:00,
2013-05-31 11:12:00,47.0,24.0,-100.00,SW,222,20.0,25.0,39,-99.99,,,-99.99,906.000000,,2013-05-31 17:12:00,
2013-05-31 11:22:00,47.0,24.0,-100.00,SW,222,20.0,25.0,39,-99.99,,,-99.99,906.000000,,2013-05-31 17:22:00,
2013-05-31 11:31:00,47.0,24.0,-100.00,SW,229,19.0,31.0,39,-99.99,,,-99.99,926.000000,,2013-05-31 17:31:00,
2013-05-31 11:42:00,48.0,26.0,-100.00,SW,219,21.0,32.0,42,-99.99,,,-99.99,964.000000,,2013-05-31 17:42:00,
2013-05-31 11:52:00,48.0,25.0,-100.00,SW,226,20.0,28.0,40,-99.99,,,-99.99,979.000000,,2013-05-31 17:52:00,
2013-05-31 12:01:00,48.0,26.0,-100.00,SW,223,16.0,25.0,42,-99.99,,,-99.99,991.000000,,2013-05-31 18:01:00,
2013-05-31 12:11:00,48.0,26.0,-100.00,SW,223,16.0,25.0,42,-99.99,,,-99.99,991.000000,,2013-05-31 18:11:00,
2013-05-31 12:21:00,49.0,23.0,-100.00,SW,232,16.0,25.0,35,-99.99,,,-99.99,1019.000000,,2013-05-31 18:21:00,
2013-05-31 12:31:00,49.0,23.0,-100.00,SW,232,16.0,25.0,35,-99.99,,,-99.99,1019.000000,,2013-05-31 18:31:00,
2013-05-31 12:41:00,49.0,22.0,-100.00,SW,230,20.0,26.0,34,-99.99,,,-99.99,1040.000000,,2013-05-31 18:41:00,
2013-05-31 12:52:00,49.0,20.0,-100.00,SW,221,19.0,29.0,31,-99.99,,,-99.99,1046.000000,,2013-05-31 18:52:00,
2013-05-31 13:01:00,49.0,20.0,-100.00,SW,221,19.0,29.0,31,-99.99,,,-99.99,1046.000000,,2013-05-31 19:01:00,
2013-05-31 13:11:00,50.0,19.0,-100.00,SW,229,19.0,26.0,29,-99.99,,,-99.99,1060.000000,,2013-05-31 19:11:00,
2013-05-31 13:21:00,51.0,20.0,-100.00,SW,219,19.0,24.0,28,-99.99,,,-99.99,1063.000000,,2013-05-31 19:21:00,
2013-05-31 13:31:00,51.0,21.0,-100.00,SW,222,16.0,28.0,30,-99.99,,,-99.99,1063.000000,,2013-05-31 19:31:00,
2013-05-31 13:42:00,51.0,19.0,-100.00,SW,235,14.0,25.0,27,-99.99,,,-99.99,1063.000000,,2013-05-31 19:42:00,
2013-05-31 13:52:00,51.0,20.0,-100.00,SW,230,22.0,26.0,29,-99.99,,,-99.99,1061.000000,,2013-05-31 19:52:00,
2013-05-31 14:01:00,51.0,20.0,-100.00,SW,230,22.0,26.0,29,-99.99,,,-99.99,1061.000000,,2013-05-31 20:01:00,
2013-05-31 14:11:00,51.0,19.0,-100.00,SW,233,16.0,25.0,27,-99.99,,,-99.99,1056.000000,,2013-05-31 20:11:00,
2013-05-31 14:22:00,52.0,20.0,-100.00,SW,220,23.0,28.0,27,-99.99,,,-99.99,1050.000000,,2013-05-31 20:22:00,
2013-05-31 14:31:00,52.0,20.0,-100.00,SW,220,23.0,28.0,27,-99.99,,,-99.99,1050.000000,,2013-05-31 20:31:00,
2013-05-31 14:41:00,51.0,22.0,-100.00,SW,220,17.0,22.0,30,-99.99,,,-99.99,1031.000000,,2013-05-31 20:41:00,
2013-05-31 14:51:00,52.0,20.0,-100.00,SW,220,16.0,24.0,28,-99.99,,,-99.99,1021.000000,,2013-05-31 20:51:00,
2013-05-31 15:01:00,52.0,24.0,-100.00,WSW,248,15.0,23.0,33,-99.99,,,-99.99,1011.000000,,2013-05-31 21:01:00,
2013-05-31 15:11:00,53.0,24.0,-100.00,SW,235,15.0,22.0,31,-99.99,,,-99.99,999.000000,,2013-05-31 21:11:00,
2013-05-31 15:22:00,53.0,24.0,-100.00,SW,235,15.0,22.0,31,-99.99,,,-99.99,999.000000,,2013-05-31 21:22:00,
2013-05-31 15:32:00,53.0,22.0,-100.00,SSW,209,15.0,26.0,29,-99.99,,,-99.99,986.000000,,2013-05-31 21:32:00,
2013-05-31 15:42:00,54.0,23.0,-100.00,WSW,238,16.0,22.0,30,-99.99,,,-99.99,971.000000,,2013-05-31 21:42:00,
2013-05-31 15:53:00,54.0,23.0,-100.00,SW,216,18.0,22.0,30,-99.99,,,-99.99,938.000000,,2013-05-31 21:53:00,
2013-05-31 16:02:00,53.0,23.0,-100.00,WSW,238,15.0,25.0,30,-99.99,,,-99.99,915.000000,,2013-05-31 22:02:00,
2013-05-31 16:12:00,52.0,23.0,-100.00,WSW,255,18.0,23.0,31,-99.99,,,-99.99,895.000000,,2013-05-31 22:12:00,
2013-05-31 16:22:00,52.0,23.0,-100.00,WSW,255,18.0,23.0,31,-99.99,,,-99.99,895.000000,,2013-05-31 22:22:00,
2013-05-31 16:33:00,54.0,22.0,-100.00,SW,226,17.0,26.0,28,-99.99,,,-99.99,851.000000,,2013-05-31 22:33:00,
2013-05-31 16:41:00,54.0,22.0,-100.00,WSW,242,15.0,23.0,28,-99.99,,,-99.99,829.000000,,2013-05-31 22:41:00,
2013-05-31 16:52:00,54.0,22.0,-100.00,SW,225,16.0,21.0,28,-99.99,,,-99.99,804.000000,,2013-05-31 22:52:00,
2013-05-31 17:02:00,54.0,22.0,-100.00,West,260,12.0,21.0,28,-99.99,,,-99.99,776.500000,,2013-05-31 23:02:00,
2013-05-31 17:12:00,54.0,22.0,-100.00,SW,228,14.0,22.0,28,-99.99,,,-99.99,747.900024,,2013-05-31 23:12:00,
2013-05-31 17:21:00,54.0,21.0,-100.00,SW,229,14.0,23.0,27,-99.99,,,-99.99,717.400024,,2013-05-31 23:21:00,
2013-05-31 17:32:00,53.0,22.0,-100.00,SW,234,15.0,25.0,29,-99.99,,,-99.99,688.299988,,2013-05-31 23:32:00,
2013-05-31 17:42:00,53.0,22.0,-100.00,WSW,251,14.0,22.0,30,-99.99,,,-99.99,658.400024,,2013-05-31 23:42:00,
2013-05-31 17:52:00,53.0,22.0,-100.00,WSW,251,14.0,22.0,30,-99.99,,,-99.99,658.400024,,2013-05-31 23:52:00,
2013-05-31 18:01:00,54.0,22.0,-100.00,SW,227,17.0,21.0,28,-99.99,,,-99.99,594.400024,,2013-06-01 00:01:00,
2013-05-31 18:11:00,53.0,23.0,-100.00,WSW,253,11.0,21.0,31,-99.99,,,-99.99,561.799988,,2013-06-01 00:11:00,
2013-05-31 18:21:00,54.0,22.0,-100.00,SW,224,16.0,21.0,29,-99.99,,,-99.99,529.500000,,2013-06-01 00:21:00,
2013-05-31 18:31:00,52.0,20.0,-100.00,WSW,252,13.0,23.0,28,-99.99,,,-99.99,496.000000,,2013-06-01 00:31:00,
2013-05-31 18:42:00,53.0,21.0,-100.00,SW,234,13.0,20.0,28,-99.99,,,-99.99,461.500000,,2013-06-01 00:42:00,
2013-05-31 18:51:00,52.0,21.0,-100.00,SW,234,15.0,24.0,28,-99.99,,,-99.99,428.000000,,2013-06-01 00:51:00,
2013-05-31 19:01:00,52.0,19.0,-100.00,WSW,240,15.0,23.0,27,-99.99,,,-99.99,394.000000,,2013-06-01 01:01:00,
2013-05-31 19:11:00,52.0,19.0,-100.00,WSW,248,15.0,21.0,26,-99.99,,,-99.99,360.200012,,2013-06-01 01:11:00,
2013-05-31 19:21:00,51.0,15.0,-100.00,WSW,250,15.0,25.0,22,-99.99,,,-99.99,300.200012,,2013-06-01 01:21:00,
2013-05-31 19:31:00,51.0,16.0,-100.00,SW,224,16.0,23.0,23,-99.99,,,-99.99,290.500000,,2013-06-01 01:31:00,
2013-05-31 19:42:00,51.0,15.0,-100.00,SW,233,14.0,19.0,23,-99.99,,,-99.99,258.700012,,2013-06-01 01:42:00,
2013-05-31 19:52:00,51.0,16.0,-100.00,SW,228,13.0,17.0,24,-99.99,,,-99.99,227.100006,,2013-06-01 01:52:00,
2013-05-31 20:01:00,50.0,15.0,-100.00,WSW,245,13.0,18.0,24,-99.99,,,-99.99,194.300003,,2013-06-01 02:01:00,
2013-05-31 20:11:00,50.0,13.0,-100.00,WSW,242,14.0,16.0,22,-99.99,,,-99.99,164.500000,,2013-06-01 02:11:00,
2013-05-31 20:21:00,49.0,15.0,-100.00,WSW,242,9.0,15.0,24,-99.99,,,-99.99,131.500000,,2013-06-01 02:21:00,
2013-05-31 20:31:00,48.0,15.0,-100.00,WSW,239,10.0,11.0,26,-99.99,,,-99.99,20.840000,,2013-06-01 02:31:00,
2013-05-31 20:42:00,48.0,15.0,-100.00,WSW,254,8.0,11.0,26,-99.99,,,-99.99,16.030001,,2013-06-01 02:42:00,
2013-05-31 20:51:00,48.0,14.0,-100.00,WSW,256,9.0,11.0,25,-99.99,,,-99.99,13.000000,,2013-06-01 02:51:00,
2013-05-31 21:01:00,48.0,14.0,-100.00,West,267,7.0,11.0,25,-99.99,,,-99.99,9.810000,,2013-06-01 03:01:00,
2013-05-31 21:11:00,48.0,14.0,-100.00,West,276,7.0,8.0,25,-99.99,,,-99.99,6.290000,,2013-06-01 03:11:00,
2013-05-31 21:21:00,46.0,15.0,-100.00,West,281,6.0,7.0,27,-99.99,,,-99.99,3.190000,,2013-06-01 03:21:00,
2013-05-31 21:33:00,46.0,14.0,-100.00,WNW,289,4.0,7.0,26,-99.99,,,-99.99,1.060000,,2013-06-01 03:33:00,
2013-05-31 21:43:00,46.0,13.0,-100.00,NW,310,6.0,7.0,26,-99.99,,,-99.99,0.230000,,2013-06-01 03:43:00,
2013-05-31 21:53:00,46.0,13.0,-100.00,WNW,296,5.0,6.0,26,-99.99,,,-99.99,0.000000,,2013-06-01 03:53:00,
2013-05-31 22:02:00,46.0,13.0,-100.00,NW,317,4.0,6.0,25,-99.99,,,-99.99,0.000000,,2013-06-01 04:02:00,
2013-05-31 22:12:00,46.0,13.0,-100.00,NNW,329,3.0,5.0,26,-99.99,,,-99.99,0.000000,,2013-06-01 04:12:00,
2013-05-31 22:22:00,45.0,12.0,-100.00,North,356,2.0,3.0,26,-99.99,,,-99.99,0.000000,,2013-06-01 04:22:00,
2013-05-31 22:33:00,45.0,13.0,-100.00,NNE,13,1.0,4.0,27,-99.99,,,-99.99,0.000000,,2013-06-01 04:33:00,
2013-05-31 22:42:00,45.0,13.0,-100.00,North,351,2.0,4.0,27,-99.99,,,-99.99,0.000000,,2013-06-01 04:42:00,
2013-05-31 22:53:00,45.0,15.0,-100.00,NNE,33,1.0,3.0,29,-99.99,,,-99.99,0.000000,,2013-06-01 04:53:00,
2013-05-31 23:02:00,44.0,16.0,-100.00,NE,45,1.0,2.0,31,-99.99,,,-99.99,0.000000,,2013-06-01 05:02:00,
2013-05-31 23:12:00,44.0,16.0,-100.00,NE,50,2.0,3.0,31,-99.99,,,-99.99,0.000000,,2013-06-01 05:12:00,
2013-05-31 23:22:00,44.0,16.0,-100.00,NE,42,2.0,3.0,31,-99.99,,,-99.99,0.000000,,2013-06-01 05:22:00,
2013-05-31 23:32:00,44.0,16.0,-100.00,NE,56,2.0,3.0,32,-99.99,,,-99.99,0.000000,,2013-06-01 05:32:00,
2013-05-31 23:42:00,44.0,17.0,-100.00,ENE,62,4.0,4.0,34,-99.99,,,-99.99,0.000000,,2013-06-01 05:42:00,
2013-05-31 23:52:00,43.0,16.0,-100.00,NE,52,3.0,6.0,33,-99.99,,,-99.99,0.000000,,2013-06-01 05:52:00,